Boscobel, WI

12:38 AM CST on February 21, 2017 (GMT -0600)
Boscobel

Weather History for KOVS - November, 2012

Change the Weather History Date:

Monday, November 19, 2012

  Actual Average (KPDC) Record (KPDC)
Temperature  
Mean Temperature 50 °F -  
Max Temperature 55 °F 46 °F 68 °F (1975)
Min Temperature 46 °F 28 °F 10 °F (1951)
Degree Days  
Heating Degree Days 14    
Moisture  
Dew Point 38 °F    
Average Humidity 64    
Maximum Humidity 86    
Minimum Humidity 51    
Precipitation  
Precipitation 0.00 in - - ()
Sea Level Pressure  
Sea Level Pressure 30.14 in    
Wind  
Wind Speed 1 mph (South)    
Max Wind Speed 7 mph    
Max Gust Speed -    
Averages and records for this station are not official NWS values.
T = Trace of Precipitation, MM = Missing Value Source: NWS Daily Summary

Daily Weather History Graph

Daily Weather History Graph

Search for Another Location

Airport or City:

Trip Planner

Search our weather history database for the weather conditions in past years. The results will help you decide how hot, cold, wet, or windy it might be!

Date:

Astronomy

Nov. 19, 2012 Rise Set
Actual Time 7:01 AM CST 4:34 PM CST
Civil Twilight 6:30 AM CST 5:05 PM CST
Nautical Twilight 5:55 AM CST 5:40 PM CST
Astronomical Twilight 5:21 AM CST 6:14 PM CST
Moon 12:00 PM CST (11/19) 11:06 PM CST (11/19)
Length of Visible Light 10h 35m
Length of Day
9h 33m
Waxing Crescent, 41% of the Moon is Illuminated
Nov 19
Waxing Crescent
Nov 20
First Quarter
Nov 28
Full
Dec 6
Last Quarter
Dec 13
New

Hourly Weather History & Observations

Time (CST) Temp. Windchill Dew Point Humidity Pressure Visibility Wind Dir Wind Speed Gust Speed Precip Events Conditions
12:53 AM 48.9 °F - 34.0 °F 56% 30.24 in - Calm Calm - N/A   Mostly Cloudy
1:53 AM 48.0 °F - 34.0 °F 58% 30.24 in - SW 4.6 mph - N/A   Partly Cloudy
2:53 AM 48.9 °F - 35.1 °F 59% 30.23 in - Calm Calm - N/A   Overcast
3:53 AM 48.0 °F - 34.0 °F 58% 30.21 in - Calm Calm - N/A   Partly Cloudy
4:53 AM 46.9 °F - 34.0 °F 61% 30.21 in - Calm Calm - N/A   Clear
5:53 AM 46.0 °F - 34.0 °F 63% 30.21 in - Calm Calm - N/A   Clear
6:53 AM 46.0 °F - 35.1 °F 66% 30.19 in - Calm Calm - N/A   Overcast
7:53 AM 46.0 °F 43.9 °F 35.1 °F 66% 30.20 in - Variable 4.6 mph - N/A   Overcast
8:53 AM 46.9 °F - 35.1 °F 63% 30.19 in - Calm Calm - N/A   Overcast
9:53 AM 48.0 °F - 36.0 °F 63% 30.20 in - Calm Calm - N/A   Overcast
10:53 AM 51.1 °F - 36.0 °F 56% 30.18 in - South 5.8 mph - N/A   Overcast
11:53 AM 53.1 °F - 36.0 °F 52% 30.14 in - Calm Calm - N/A   Overcast
12:53 PM 55.0 °F - 37.9 °F 53% 30.11 in - Calm Calm - N/A   Overcast
1:53 PM 55.9 °F - 37.9 °F 51% 30.09 in - Calm Calm - N/A   Overcast
2:53 PM 55.0 °F - 39.0 °F 55% 30.09 in - Variable 4.6 mph - N/A   Overcast
3:27 PM 53.6 °F - 39.2 °F 58% 30.08 in - South 6.9 mph - N/A   Overcast
3:53 PM 53.1 °F - 39.9 °F 61% 30.09 in - South 3.5 mph - N/A   Overcast
4:53 PM 53.1 °F - 41.0 °F 64% 30.09 in - South 3.5 mph - N/A   Overcast
5:34 PM 51.8 °F - 42.8 °F 71% 30.09 in - Calm Calm - N/A   Overcast
5:53 PM 52.0 °F - 42.1 °F 69% 30.11 in - Calm Calm - N/A   Overcast
6:53 PM 51.1 °F - 42.1 °F 71% 30.11 in - Calm Calm - N/A   Overcast
7:20 PM 51.8 °F - 42.8 °F 71% 30.09 in - Calm Calm - N/A   Overcast
7:53 PM 50.0 °F - 42.1 °F 74% 30.10 in - Calm Calm - N/A   Overcast
9:53 PM 50.0 °F - 44.1 °F 80% 30.09 in - Calm Calm - N/A   Overcast
10:53 PM 48.0 °F - 43.0 °F 83% 30.09 in - Calm Calm - N/A   Overcast
11:53 PM 46.9 °F - 43.0 °F 86% 30.09 in - Calm Calm - N/A   Overcast